Baku airport (UBBB)

baku-airport

Baku International Airport

Heydar Aliyev International Airport is the main international airport in Azerbaijan located 20 km (12 mi) northeast of the capital Baku. The airport is the home of Azerbaijan Airlines, the national flag carrier. It is the busiest airport in Azerbaijan and of the Caucasus.

ICAO: UBBB, IATA: GYD

Charts: Jeppesen

Sceneries: freeware demos w. reduced resolution

 fs9     fsx     Prepar

payware: http://www.drzewiecki-design.net/

METAR:

UBBB 021730Z 33008KT 9999 FEW034CB BKN034 08/07 Q1024 NOSIG

TAF UBBB 021707Z 0218/0318 34005KT 9999 SCT030 TX13/0310Z TN05/0302Z TEMPO 0218/0222 35010KT TEMPO 0222/0301 VRB04KT FEW012 BECMG 0301/0303 16010KT BECMG 0306/0308 17016KT TEMPO 0308/0318 18026KT